CAPE
92 34 136 256 285 0 328 362 319 147 414 154 175 87 161 454 280 290 328 301 280 647 1049 1284 1689 1865 1889 2185 2751 2806 2715 2921
61 27 43 175 193 322 318 77 311 269 281 381 94 137 162 397 62 242 385 267 375 575 815 1345 1658 2023 2082 2287 2473 2603 2346 2731
159 103 131 101 130 269 298 465 359 219 372 495 167 200 206 186 140 200 248 307 578 673 993 1299 1497 2009 2274 2423 2517 2506 2298 2144
228 221 119 82 109 119 458 267 174 179 376 118 153 239 206 389 218 142 278 367 646 890 1255 1505 1645 2006 2144 2169 2241 2285 2587 2750
450 264 229 97 151 145 261 175 150 206 276 167 154 263 356 312 188 234 426 729 1136 1391 1785 1838 1948 2032 2241 2227 2252 2826 3133 3060
236 423 289 126 128 165 183 84 269 171 195 98 180 284 275 271 331 405 667 1040 1141 1665 2122 2612 2798 2790 2658 2760 3068 3193 3223 2868
16 108 265 192 164 240 166 143 173 154 123 93 212 259 170 140 237 461 888 952 1543 2289 3194 3501 3610 3529 3472 3318 3222 2823 2338 1556
20 0 146 162 165 170 94 16 31 0 85 24 80 225 122 148 238 584 718 1146 2259 3085 3249 3362 3418 3418 3304 3038 2588 1964 1400 836
0 20 127 181 136 191 155 42 6 250 110 27 93 178 293 328 328 617 924 1805 2874 3033 3174 3385 3335 3212 2858 2304 1444 787 406 270
1 44 67 68 75 76 69 70 22 335 153 147 166 190 432 608 640 815 1465 2570 3045 3079 3340 3262 3004 2415 1760 964 564 398 322 277
42 50 32 32 52 49 57 89 38 260 112 144 160 265 342 539 755 1210 2307 2766 2973 3142 3157 2822 1894 1314 814 440 352 367 346 270
0 21 58 38 64 61 45 133 45 213 455 254 152 242 396 689 1365 2189 2723 2720 2896 2982 2624 1612 1085 713 604 453 373 337 242 211
0 2 28 52 93 102 149 131 75 85 529 448 230 298 698 1400 2262 2674 2727 2757 2951 2671 1427 992 717 587 628 432 291 151 119 119
0 0 4 5 90 174 150 115 80 163 515 606 621 349 1202 2260 2768 2765 2803 2921 2615 1299 1217 793 686 868 620 356 160 81 113 44
0 0 0 0 1 96 127 100 129 201 384 928 955 1084 2329 2867 2743 2795 2846 2691 1273 1133 874 657 732 600 434 249 156 56 30 12
0 0 0 0 0 36 60 97 187 229 313 446 992 2167 2778 2756 2701 2835 2726 1428 1149 862 683 797 791 614 309 118 36 36 23 5
0 0 0 0 0 32 53 63 34 273 222 1239 1410 2502 2820 2634 3044 2972 2139 1323 1195 895 1044 990 823 637 126 39 22 24 11 4
0 0 227 9 0 0 30 99 105 396 1138 1156 1804 2608 3048 3238 3448 2646 1716 1378 1341 1132 1118 1294 964 594 432 36 29 4 1 1
5 0 0 0 0 0 0 38 58 134 1031 1897 2249 2615 2792 3303 3424 1825 1886 1732 1630 1608 1786 1692 1601 901 608 409 198 126 0 0
CIN
-1 -32 -4 -1 -44 -28 -106 0 0 -27 -1 -48 -50 -83 -34 -2 0 0 0 0 -1 -7 -16 -32 -25 -23 -29 -17 -20 -14 -9 -12
-3 -26 -43 -23 -15 -73 -3 -7 -2 -4 -12 -10 -81 -65 -52 0 -83 -1 -1 0 0 -3 -14 -26 -23 -29 -29 -32 -24 -19 -6 -5
0 -7 -2 -27 -11 -1 -46 0 -6 -5 -1 -34 -80 -72 -54 -38 -39 -4 -7 -6 0 0 -7 -18 -20 -25 -27 -28 -29 -18 -10 -1
0 0 -2 -36 -10 -3 -2 0 -24 -15 -9 -61 -89 -63 -58 -5 -17 -30 -11 -19 0 -11 -14 -18 -19 -20 -21 -17 -14 -2 -5 -12
0 -1 0 -26 -2 -24 0 -174 -6 0 -33 -73 -85 -65 -34 -20 -53 -55 -17 -12 -8 -13 -18 -16 -16 -17 -18 -18 -8 -8 -14 0
0 0 0 -4 -3 -7 -6 -21 -2 -1 -32 -86 -74 -56 -33 -71 -62 -55 -32 -9 -5 -12 -20 -27 -33 -37 -35 -17 -8 -1 0 -8
-4 -6 0 0 0 0 -3 -5 -5 -6 -42 -83 -62 -57 -70 -107 -101 -72 -18 -1 -10 -20 -46 -72 -66 -50 -30 -21 -12 -27 -48 -109
0 0 -1 -10 0 -1 -10 -18 -23 0 -10 -76 -90 -75 -108 -110 -86 -53 -30 -9 -25 -57 -85 -91 -75 -54 -42 -40 -54 -94 -147 -255
0 -4 0 0 -5 -2 -4 -10 0 0 -3 -110 -107 -100 -78 -57 -62 -40 -17 -17 -42 -72 -89 -73 -65 -56 -60 -90 -191 -328 -425 -458
0 -10 -1 -1 -1 -16 -1 -1 -14 -1 -1 -55 -62 -66 -28 -11 -29 -18 -15 -36 -70 -86 -88 -78 -76 -110 -176 -318 -420 -442 -436 -433
0 0 0 0 -1 -1 0 0 -2 0 -38 -11 -55 -20 -35 -8 -1 -10 -33 -81 -85 -102 -108 -131 -225 -292 -388 -473 -485 -435 -409 -426
0 0 0 -1 -2 -1 -13 -7 -2 -4 -1 0 -52 -44 -26 -1 -1 -20 -73 -92 -112 -121 -187 -279 -361 -423 -429 -448 -460 -451 -478 -445
0 0 -1 0 0 -2 -1 -6 -20 -3 -8 -2 -39 -16 -3 -2 -28 -71 -115 -141 -128 -179 -279 -393 -441 -448 -412 -459 -508 -579 -544 -470
0 0 0 -1 0 -4 -3 -6 -12 -3 -2 -8 -20 -13 -4 -37 -81 -118 -168 -158 -172 -294 -387 -475 -461 -388 -420 -487 -610 -622 -515 -543
0 0 0 0 -1 -2 -2 -3 -2 -1 -3 -6 -10 -3 -25 -80 -121 -176 -181 -205 -261 -377 -470 -496 -449 -444 -488 -570 -569 -627 -604 -616
0 0 0 0 0 -2 -3 -4 -4 -3 -14 -5 -11 -20 -55 -99 -155 -200 -209 -262 -326 -434 -482 -462 -440 -443 -561 -649 -683 -617 -579 0
0 0 0 0 0 -2 -2 -4 -12 -3 -11 -7 -2 -36 -88 -142 -151 -184 -239 -285 -345 -425 -412 -438 -455 -455 -665 -725 -697 -621 -597 -403
0 0 -39 -1 0 0 -2 -1 -5 -26 -16 -2 -4 -43 -99 -120 -153 -236 -287 -333 -382 -408 -455 -419 -440 -487 -481 -702 -629 -639 -182 0
-2 0 0 0 0 0 0 -11 -6 -3 -5 -23 -16 -63 -107 -160 -203 -367 -351 -374 -398 -401 -398 -388 -339 -423 -432 -428 -445 -406 0 -5
Wind_Speed
18 13 12 5 16 19 14 15 9 9 13 9 18 16 16 15 16 14 12 16 17 16 15 14 13 13 12 13 13 13 13 10
14 8 12 15 9 14 6 5 8 10 11 16 17 18 16 16 16 16 14 14 14 13 15 14 14 12 11 11 11 12 12 12
16 15 16 11 12 3 9 10 3 10 10 17 19 18 17 16 16 18 17 15 13 13 12 12 12 12 11 11 11 10 10 9
17 17 17 13 15 14 15 10 6 6 14 17 19 19 18 16 17 18 16 15 13 11 11 11 11 11 11 10 10 9 8 4
19 19 12 10 16 16 16 14 7 3 14 18 20 18 18 17 18 15 14 14 14 13 12 11 10 10 10 9 8 10 8 7
16 17 19 19 19 17 14 8 9 14 20 21 20 19 18 20 17 15 14 14 15 14 12 11 10 9 9 10 9 9 11 11
24 15 19 20 20 19 16 13 7 23 19 22 22 20 19 20 18 17 16 16 14 15 13 12 12 11 10 11 10 11 12 11
26 25 19 7 21 18 13 15 8 16 20 20 18 18 20 20 18 18 16 16 17 16 15 14 13 12 12 11 12 12 11 12
22 19 19 17 26 16 13 12 12 13 26 25 22 21 21 20 19 18 18 18 17 17 15 14 14 13 13 13 13 12 12 12
18 21 25 9 16 11 12 12 11 17 26 25 22 22 21 20 19 19 19 18 17 16 15 15 15 14 14 14 13 13 12 12
17 19 17 20 21 20 14 12 9 13 20 26 24 21 20 20 19 20 19 17 16 16 17 16 15 15 15 14 13 13 13 12
17 23 26 17 23 14 16 14 13 14 8 20 21 17 15 20 19 20 20 17 17 19 18 17 16 15 15 14 13 13 12 12
17 16 16 20 19 16 18 12 16 19 15 17 22 16 19 18 19 19 19 20 20 19 17 17 16 16 15 14 13 13 12 12
19 19 17 22 18 21 13 17 9 18 20 15 15 19 26 25 24 24 24 23 21 18 17 16 16 14 15 14 14 13 13 12
20 16 9 12 19 15 16 13 14 7 21 22 23 19 24 23 26 25 25 22 20 19 19 17 16 15 16 15 14 14 13 12
21 21 23 18 18 20 15 15 12 10 11 20 21 23 24 24 25 24 23 21 21 22 20 18 16 15 16 16 15 15 14 13
20 21 21 24 20 16 19 16 12 8 2 11 19 23 24 23 24 23 21 20 20 20 19 19 18 17 17 17 16 15 14 12
13 21 14 14 22 21 14 18 19 11 11 18 20 23 24 21 21 23 22 21 19 19 20 20 19 19 17 18 16 15 14 11
9 13 18 23 20 24 22 14 11 20 21 18 23 22 26 22 21 21 21 22 21 22 20 20 19 18 17 16 16 14 13 12
Wind_Direction
200 218 253 225 143 234 272 152 190 133 90 104 137 161 155 167 134 153 169 142 138 152 154 162 165 176 180 168 183 192 191 196
181 227 238 225 326 207 159 240 115 128 160 130 156 161 170 136 161 148 128 138 142 155 156 161 167 165 174 172 183 190 204 188
176 206 220 203 243 263 315 305 310 146 125 136 158 166 165 158 173 146 140 141 152 147 142 153 159 152 164 171 177 189 203 190
206 204 234 255 220 204 225 144 157 88 105 140 158 160 168 165 154 143 144 139 134 134 144 142 158 151 160 171 163 191 127 143
233 196 213 236 242 261 256 314 144 270 130 145 161 160 168 158 123 127 132 137 142 144 140 144 144 144 141 164 127 113 141 149
219 220 191 206 249 234 268 201 142 108 138 145 159 161 162 127 139 144 153 152 149 138 128 121 118 121 123 102 108 109 89 85
234 259 197 198 214 225 250 278 286 137 152 154 163 164 142 145 156 157 153 158 146 131 133 131 129 123 117 113 103 105 99 102
243 195 270 221 200 207 198 254 274 269 147 152 158 158 149 158 161 162 162 151 140 139 141 137 135 131 123 114 100 103 110 103
234 214 234 195 238 197 199 201 260 258 142 149 164 161 165 163 166 168 163 152 148 149 147 139 136 132 126 120 115 115 112 108
228 230 233 203 193 222 235 201 215 257 144 152 166 166 167 167 173 163 154 150 151 146 141 139 137 127 124 121 120 118 117 116
224 228 222 215 236 202 220 213 209 240 164 158 171 171 170 170 171 161 152 154 152 143 141 130 129 130 127 124 123 124 122 122
220 231 225 201 223 216 220 221 192 225 159 157 165 183 175 163 153 150 150 157 149 140 136 137 136 137 134 133 132 128 127 126
223 230 236 223 207 214 213 213 196 190 172 195 178 191 149 152 145 150 154 154 144 145 140 138 142 141 135 134 130 127 126 124
223 218 223 229 224 208 201 220 253 180 175 189 192 203 152 154 154 156 155 150 151 139 138 145 146 142 136 129 130 132 130 126
215 218 229 251 247 230 223 206 226 212 178 187 190 176 151 156 158 155 157 155 148 144 147 147 148 144 135 138 139 136 135 133
233 211 227 237 240 249 194 225 232 203 231 181 187 159 158 159 157 159 159 157 149 151 152 148 147 145 140 145 146 146 143 142
231 245 215 225 245 261 193 213 193 174 245 186 179 165 166 164 160 157 158 156 156 155 151 149 151 148 150 153 156 152 152 154
213 219 234 218 228 250 249 217 166 181 192 203 178 175 169 168 162 158 159 157 159 156 151 151 155 154 157 161 165 160 162 166
230 218 222 215 236 233 244 253 233 183 190 188 179 175 174 166 166 160 159 158 163 158 153 152 155 159 163 165 171 171 172 170